Location: *
(47.6569°N, 7.4256°E)
Time: 14:25:04
(UTC+00:00)

Abrixas rocket - Pass Details

Date: 14 December 2019
Orbit: 354 x 365 km, 48.4° (Epoch: 16 January)

Event Time Altitude Azimuth Distance (km) Brightness Sun altitude
Rises 16:46:58 0° 208° (SSW) 2,184 6.8 -10.9°
Reaches altitude 10° 16:49:30 10° 185° (S) 1,339 5.2 -11.3°
Maximum altitude 16:51:27 16° 145° (SE) 1,043 4.1 -11.6°
Enters shadow 16:52:48 13° 114° (ESE) 1,195 4.1 -11.8°
